Location: College Park
(38.9810°N, 76.9370°W)
Time: 17:25:53
(UTC-04:00)

Envisat - Pass Details

Date: 11 February 2018
Orbit: 764 x 766 km, 98.2° (Epoch: 20 May)

Event Time Altitude Azimuth Distance (km) Brightness Sun altitude
Exits shadow 18:25:43 - 117° (ESE) 2,726 5.4 -9.3°
Reaches altitude 10° 18:27:11 10° 106° (ESE) 2,298 4.9 -9.6°
Maximum altitude 18:30:33 18° 64° (ENE) 1,805 4.3 -10.3°
Drops below altitude 10° 18:33:54 10° 22° (NNE) 2,308 5.2 -10.9°
Sets 18:36:52 0° 5° (N) 3,239 6.1 -11.5°
